{"data":{"norad_id":54114,"intl_designator":"2022-138B","name":"ONEWEB-0492","alt_names":[],"object_type":"PAYLOAD","status":"ACTIVE","operator":null,"country":"UK","launch_date":"2022-10-22","launch_site_code":"SRILR","launch_vehicle":null,"mission":null,"orbit_class":"UNKNOWN","rcs_meters":null,"size_class":null,"mass_kg":null,"dimensions":null,"purposes":["comms"],"wikipedia_slug":null,"has_3d_model":false,"image_url":null,"decayed_at":null,"tle_current":{"epoch":"2026-09-20T00:09:35.678880Z","epoch_age_seconds":68470,"freshness":"FRESH","line1":"1 54114U 22138B   26263.00666295  .00000051  00000+0  95626-4 0  9991","line2":"2 54114  87.9113 286.0772 0001717  87.4329 272.7000 13.19726568189348","mean_motion":13.19726568,"eccentricity":0.0001717,"inclination_deg":87.9113,"raan_deg":286.0772,"arg_perigee_deg":87.4329,"mean_anomaly_deg":272.7,"bstar":9.5626e-5,"rev_number":18934,"period_min":109.11351145884,"perigee_km":1184.465838854,"apogee_km":1187.06328265,"semimajor_km":7563.901560752,"source":"CELESTRAK","updated_at":"2026-09-20T09:00:44.715078Z"}}}